Location: Ajisawe
(8.4333°N, 4.3833°E)
Time: 23:44:55
(UTC+00:00)

S-56A Canister/Altair - Pass Details

Date: 23 April 2021
Orbit: 631 x 2501 km, 38.9° (Epoch: 15 May)

Event Time Altitude Azimuth Distance (km) Brightness Sun altitude
Rises 04:41:02 0° 325° (NW) 2,914 10.3 -12.5°
Reaches altitude 10° 04:43:28 10° 335° (NNW) 1,997 9.6 -12.0°
Maximum altitude 04:47:26 32° 40° (NE) 1,134 9.0 -11.0°
Drops below altitude 10° 04:51:59 10° 104° (ESE) 2,301 11.1 -9.9°
Sets 04:54:59 0° 113° (ESE) 3,442 11.8 -9.2°
